Zurück zum Katalog

COSMOS 2252

AktivMilitärPO
NORAD 22687·PAYLOAD·🇷🇺 Russia

Gestartet Jun 24, 1993 von Plesetsk Cosmodrome

Loading…

Nächste Überflüge (nächste 24 Stunden)

TLE

AktuellSource: Space-Track

Epoche: Sep 14, 2026, 18:09 UTC

1 22687U 93038A   26257.75682485  .00000034  00000-0  12709-3 0  9994
2 22687  82.5864 170.7477 0008569 126.2880 260.3866 12.63335189531830

Verfolge COSMOS 2252 in Echtzeit mit AllMySat

Download on the App Store